Location: Newark
(48.3983°N, 16.0611°E)
Time: 00:34:25
(UTC+00:00)

ISS - Pass Details

Date: 30 January 2020
Orbit: 416 x 422 km, 51.6° (Epoch: 21 February)

Event Time Altitude Azimuth Distance (km) Brightness Sun altitude
Rises 17:27:34 0° 282° (WNW) 2,379 1.4 -16.1°
Reaches altitude 10° 17:29:44 10° 288° (WNW) 1,513 0.1 -16.5°
Maximum altitude 17:33:02 47° 4° (N) 570 -3.2 -17.0°
Enters shadow 17:33:41 41° 41° (NE) 633 -3.3 -17.1°
